Woensdrecht, Netherlands

5:39 PM CEST on May 21, 2018 (GMT +0200)
Woensdrecht Air Base

Weather History for EHWO - October, 2012

Change the Weather History Date:

Saturday, October 6, 2012

  Actual Average Record
Temperature  
Mean Temperature 49 °F -  
Max Temperature 59 °F 55 °F 73 °F (1997)
Min Temperature 39 °F 44 °F 36 °F (2016)
Degree Days  
Heating Degree Days 16    
Moisture  
Dew Point 49 °F    
Average Humidity 94    
Maximum Humidity 100    
Minimum Humidity 67    
Precipitation  
Precipitation 0.00 in - - ()
Sea Level Pressure  
Sea Level Pressure 29.86 in    
Wind  
Wind Speed 4 mph ()    
Max Wind Speed 14 mph    
Max Gust Speed -    
Visibility 5.0 miles    
Events Fog , Rain    
Averages and records for this station are not official NWS values.
T = Trace of Precipitation, MM = Missing Value Source: Averaged Metar Reports

Daily Weather History Graph

Daily Weather History Graph

Search for Another Location

Airport or City:

Astronomy

Oct. 06, 2012 Rise Set
Actual Time 7:52 AM CEST 7:08 PM CEST
Civil Twilight 7:18 AM CEST 7:41 PM CEST
Nautical Twilight 6:40 AM CEST 8:20 PM CEST
Astronomical Twilight 6:00 AM CEST 8:59 PM CEST
Moon 10:37 PM CEST (10/6) 2:07 PM CEST (10/6)
Length of Visible Light 12h 22m
Length of Day
11h 16m
Waning Gibbous, 68% of the Moon is Illuminated
Oct 6
Waning Gibbous
Oct 8
Last Quarter
Oct 15
New
Oct 22
First Quarter
Oct 29
Full

Hourly Weather History & Observations

Time (CEST) Temp. Dew Point Humidity Pressure Visibility Wind Dir Wind Speed Gust Speed Precip Events Conditions
12:07 AM 51.8 °F 51.8 °F 100% 29.83 in - NNW 2.3 mph - N/A Rain Light Rain
12:09 AM 51.8 °F 51.8 °F 100% 29.83 in 3.1 mi NNW 1.2 mph - N/A   Drizzle
12:16 AM 51.8 °F 51.8 °F 100% 29.83 in 2.8 mi NNW 1.2 mph - N/A   Drizzle
12:25 AM 51.8 °F 51.8 °F 100% 29.83 in 2.8 mi North 1.2 mph - N/A   Light Drizzle
12:31 AM 51.8 °F 50.0 °F 94% 29.83 in 3.1 mi North 1.2 mph - N/A   Light Drizzle
12:32 AM 51.8 °F 50.0 °F 94% 29.83 in 5.0 mi North 1.2 mph - N/A   Light Drizzle
12:47 AM 51.8 °F 50.0 °F 94% 29.83 in 2.2 mi ENE 1.2 mph - N/A   Overcast
12:51 AM 51.8 °F 51.8 °F 100% 29.83 in 2.5 mi ENE 1.2 mph - N/A Rain Light Rain
12:55 AM 51.8 °F 51.8 °F 100% 29.83 in - ENE 1.2 mph - N/A   Drizzle
1:01 AM 51.8 °F 51.8 °F 100% 29.83 in - ENE 1.2 mph - N/A   Drizzle
1:11 AM 51.8 °F 51.8 °F 100% 29.83 in 5.6 mi ENE 2.3 mph - N/A   Overcast
1:25 AM 51.8 °F 51.8 °F 100% 29.83 in 5.6 mi ENE 2.3 mph - N/A   Overcast
1:29 AM 51.8 °F 51.8 °F 100% 29.83 in 3.7 mi NE 2.3 mph - N/A Rain Light Rain
1:30 AM 51.8 °F 51.8 °F 100% 29.83 in 3.1 mi NE 2.3 mph - N/A Rain Rain
1:38 AM 51.8 °F 51.8 °F 100% 29.83 in - East 3.5 mph - N/A   Drizzle
1:42 AM 51.8 °F 50.0 °F 94% 29.83 in - East 3.5 mph - N/A   Drizzle
1:55 AM 51.8 °F 50.0 °F 94% 29.80 in 4.3 mi East 3.5 mph - N/A   Mostly Cloudy
2:01 AM 51.8 °F 50.0 °F 94% 29.80 in 6.2 mi East 4.6 mph - N/A   Overcast
2:11 AM 51.8 °F 50.0 °F 94% 29.80 in 6.2 mi East 2.3 mph - N/A   Mostly Cloudy
2:15 AM 51.8 °F 50.0 °F 94% 29.80 in 6.2 mi ESE 2.3 mph - N/A   Overcast
2:19 AM 51.8 °F 50.0 °F 94% 29.80 in 5.6 mi ESE 2.3 mph - N/A   Overcast
2:25 AM 51.8 °F 51.8 °F 100% 29.80 in 5.0 mi ESE 3.5 mph - N/A   Overcast
2:40 AM 51.8 °F 51.8 °F 100% 29.80 in 3.7 mi ESE 3.5 mph - N/A   Overcast
2:48 AM 51.8 °F 51.8 °F 100% 29.77 in 4.3 mi ESE 3.5 mph - N/A   Overcast
2:55 AM 51.8 °F 51.8 °F 100% 29.77 in 4.3 mi SE 3.5 mph - N/A   Overcast
2:59 AM 51.8 °F 51.8 °F 100% 29.77 in 3.7 mi SE 3.5 mph - N/A   Overcast
3:25 AM 51.8 °F 51.8 °F 100% 29.77 in 4.3 mi SE 2.3 mph - N/A   Overcast
3:30 AM 51.8 °F 51.8 °F 100% 29.77 in 4.3 mi SE 2.3 mph - N/A   Overcast
3:35 AM 51.8 °F 51.8 °F 100% 29.77 in 3.7 mi ESE 2.3 mph - N/A   Overcast
3:42 AM 51.8 °F 51.8 °F 100% 29.77 in 3.7 mi ESE 2.3 mph - N/A   Mostly Cloudy
3:46 AM 51.8 °F 51.8 °F 100% 29.77 in 3.1 mi ENE 2.3 mph - N/A   Overcast
3:50 AM 51.8 °F 51.8 °F 100% 29.77 in 3.1 mi NNE 2.3 mph - N/A   Overcast
3:55 AM 51.8 °F 51.8 °F 100% 29.74 in 3.1 mi NE 2.3 mph - N/A   Overcast
4:02 AM 53.6 °F 53.6 °F 100% 29.74 in 3.1 mi ESE 4.6 mph - N/A   Mostly Cloudy
4:06 AM 53.6 °F 53.6 °F 100% 29.74 in 3.1 mi SSE 6.9 mph - N/A   Mostly Cloudy
4:10 AM 53.6 °F 53.6 °F 100% 29.74 in 3.1 mi South 5.8 mph - N/A   Overcast
4:18 AM 53.6 °F 53.6 °F 100% 29.74 in 5.0 mi South 5.8 mph - N/A   Overcast
4:25 AM 55.4 °F 55.4 °F 100% 29.74 in 5.0 mi South 5.8 mph - N/A   Overcast
4:35 AM 57.2 °F 57.2 °F 100% 29.74 in 6.2 mi SSW 6.9 mph - N/A   Overcast
4:55 AM 59.0 °F 57.2 °F 94% 29.71 in 6.2 mi SSW 12.7 mph - N/A   Overcast
5:25 AM 59.0 °F 57.2 °F 94% 29.71 in 6.2 mi SW 12.7 mph - N/A   Overcast
5:43 AM 59.0 °F 57.2 °F 94% 29.71 in 6.2 mi SW 13.8 mph - N/A   Overcast
5:47 AM 59.0 °F 57.2 °F 94% 29.71 in 6.2 mi SW 11.5 mph - N/A   Mostly Cloudy
5:55 AM 59.0 °F 57.2 °F 94% 29.71 in 6.2 mi SW 11.5 mph - N/A   Overcast
6:25 AM 59.0 °F 57.2 °F 94% 29.71 in 6.2 mi SW 11.5 mph - N/A   Overcast
6:27 AM 59.0 °F 57.2 °F 94% 29.71 in 6.2 mi SSW 11.5 mph - N/A   Overcast
6:42 AM 59.0 °F 55.4 °F 88% 29.71 in 6.2 mi SW 12.7 mph - N/A   Mostly Cloudy
6:43 AM 59.0 °F 55.4 °F 88% 29.71 in 6.2 mi SW 12.7 mph - N/A   Mostly Cloudy
6:55 AM 59.0 °F 55.4 °F 88% 29.71 in 6.2 mi SW 11.5 mph - N/A   Overcast
7:21 AM 59.0 °F 55.4 °F 88% 29.71 in 6.2 mi SW 12.7 mph - N/A   Mostly Cloudy
7:25 AM 59.0 °F 55.4 °F 88% 29.71 in 6.2 mi SW 11.5 mph - N/A   Mostly Cloudy
7:30 AM 59.0 °F 55.4 °F 88% 29.71 in 6.2 mi SW 11.5 mph - N/A   Mostly Cloudy
7:32 AM 59.0 °F 55.4 °F 88% 29.71 in 6.2 mi SW 11.5 mph - N/A   Mostly Cloudy
7:55 AM 59.0 °F 55.4 °F 88% 29.68 in 6.2 mi SW 11.5 mph - N/A   Mostly Cloudy
8:25 AM 59.0 °F 55.4 °F 88% 29.68 in 6.2 mi SW 11.5 mph - N/A Rain Light Rain
8:48 AM 55.4 °F 53.6 °F 94% 29.71 in 4.3 mi NW 13.8 mph - N/A Rain Light Rain
8:55 AM 53.6 °F 51.8 °F 94% 29.71 in 5.0 mi NNW 12.7 mph - N/A Rain Rain Showers
8:56 AM 51.8 °F 50.0 °F 94% 29.71 in 5.0 mi NNW 12.7 mph - N/A Rain Rain Showers
9:09 AM 51.8 °F 50.0 °F 94% 29.74 in 6.2 mi North 11.5 mph - N/A Rain Light Rain
9:19 AM 51.8 °F 50.0 °F 94% 29.74 in 5.6 mi North 12.7 mph - N/A Rain Light Rain
9:25 AM 51.8 °F 50.0 °F 94% 29.74 in 5.0 mi North 11.5 mph - N/A Rain Light Rain
9:26 AM 50.0 °F 50.0 °F 100% 29.74 in 4.3 mi North 10.4 mph - N/A Rain Light Rain
9:30 AM 50.0 °F 50.0 °F 100% 29.74 in 3.7 mi North 10.4 mph - N/A Rain Rain
9:34 AM 50.0 °F 50.0 °F 100% 29.74 in - North 10.4 mph - N/A Rain Rain
9:38 AM 50.0 °F 50.0 °F 100% 29.74 in 3.1 mi North 10.4 mph - N/A Rain Rain
9:42 AM 50.0 °F 50.0 °F 100% 29.77 in 3.1 mi North 9.2 mph - N/A Rain Rain
9:55 AM 50.0 °F 50.0 °F 100% 29.77 in 5.6 mi North 9.2 mph - N/A Rain Light Rain
9:58 AM 50.0 °F 50.0 °F 100% 29.77 in 5.6 mi North 9.2 mph - N/A Rain Light Rain
10:25 AM 51.8 °F 50.0 °F 94% 29.77 in 6.2 mi North 6.9 mph - N/A Rain Light Rain Showers
10:34 AM 51.8 °F 50.0 °F 94% 29.80 in 4.3 mi North 4.6 mph - N/A Rain Rain
10:40 AM 51.8 °F 50.0 °F 94% 29.80 in 6.2 mi North 4.6 mph - N/A Rain Rain
10:55 AM 51.8 °F 50.0 °F 94% 29.80 in 6.2 mi NNW 3.5 mph - N/A Rain Light Rain Showers
10:57 AM 51.8 °F 50.0 °F 94% 29.80 in 6.2 mi NNW 4.6 mph - N/A Rain Light Rain
11:03 AM 51.8 °F 50.0 °F 94% 29.80 in 6.2 mi North 5.8 mph - N/A Rain Light Rain
11:10 AM 51.8 °F 51.8 °F 100% 29.80 in 6.2 mi North 4.6 mph - N/A Rain Light Rain
11:12 AM 51.8 °F 51.8 °F 100% 29.80 in 6.2 mi North 3.5 mph - N/A Rain Light Rain
11:19 AM 51.8 °F 51.8 °F 100% 29.80 in 6.2 mi NNW 3.5 mph - N/A Rain Light Rain
11:25 AM 51.8 °F 51.8 °F 100% 29.83 in 6.2 mi NNW 4.6 mph - N/A Rain Light Rain
11:35 AM 51.8 °F 51.8 °F 100% 29.83 in 3.7 mi NW 4.6 mph - N/A   Light Drizzle
11:40 AM 51.8 °F 51.8 °F 100% 29.83 in 3.1 mi NW 4.6 mph - N/A   Drizzle
11:45 AM 51.8 °F 50.0 °F 94% 29.83 in 3.7 mi NNW 6.9 mph - N/A   Drizzle
11:49 AM 51.8 °F 51.8 °F 100% 29.83 in 6.2 mi NNW 5.8 mph - N/A   Drizzle
11:55 AM 51.8 °F 51.8 °F 100% 29.83 in 6.2 mi North 4.6 mph - N/A   Mostly Cloudy
11:57 AM 51.8 °F 51.8 °F 100% 29.83 in 6.2 mi North 5.8 mph - N/A   Mostly Cloudy
12:10 PM 51.8 °F 51.8 °F 100% 29.86 in 6.2 mi North 4.6 mph - N/A   Mostly Cloudy
12:14 PM 53.6 °F 51.8 °F 94% 29.86 in 6.2 mi North 5.8 mph - N/A   Mostly Cloudy
12:17 PM 53.6 °F 51.8 °F 94% 29.86 in 6.2 mi North 5.8 mph - N/A   Overcast
12:25 PM 53.6 °F 51.8 °F 94% 29.86 in 6.2 mi NNW 6.9 mph - N/A   Mostly Cloudy
12:29 PM 53.6 °F 51.8 °F 94% 29.86 in 6.2 mi NNW 8.1 mph - N/A   Mostly Cloudy
12:38 PM 53.6 °F 51.8 °F 94% 29.86 in 6.2 mi NNW 8.1 mph - N/A   Mostly Cloudy
12:42 PM 53.6 °F 50.0 °F 88% 29.86 in 6.2 mi NNW 8.1 mph - N/A   Mostly Cloudy
12:47 PM 53.6 °F 50.0 °F 88% 29.86 in 6.2 mi North 8.1 mph - N/A   Mostly Cloudy
12:55 PM 53.6 °F 50.0 °F 88% 29.89 in 6.2 mi North 6.9 mph - N/A   Overcast
1:12 PM 53.6 °F 50.0 °F 88% 29.89 in 6.2 mi NNW 4.6 mph - N/A   Mostly Cloudy
1:15 PM 55.4 °F 50.0 °F 82% 29.89 in 6.2 mi NNW 4.6 mph - N/A   Mostly Cloudy
1:20 PM 55.4 °F 50.0 °F 82% 29.89 in 6.2 mi NW 5.8 mph - N/A   Mostly Cloudy
1:25 PM 55.4 °F 50.0 °F 82% 29.89 in 6.2 mi NNW 5.8 mph - N/A   Overcast
1:29 PM 55.4 °F 50.0 °F 82% 29.89 in 6.2 mi NNW 5.8 mph - N/A   Overcast
1:30 PM 55.4 °F 50.0 °F 82% 29.89 in 6.2 mi NNW 4.6 mph - N/A   Mostly Cloudy
1:38 PM 55.4 °F 50.0 °F 82% 29.89 in 6.2 mi NNW 5.8 mph - N/A   Overcast
1:47 PM 55.4 °F 50.0 °F 82% 29.89 in 6.2 mi NNW 5.8 mph - N/A   Overcast
1:55 PM 55.4 °F 50.0 °F 82% 29.89 in 6.2 mi NNW 5.8 mph - N/A   Overcast
1:59 PM 55.4 °F 50.0 °F 82% 29.89 in 6.2 mi NNW 4.6 mph - N/A   Overcast
2:08 PM 55.4 °F 50.0 °F 82% 29.89 in 6.2 mi NW 5.8 mph - N/A   Overcast
2:13 PM 55.4 °F 50.0 °F 82% 29.89 in 6.2 mi NW 6.9 mph - N/A   Overcast
2:20 PM 55.4 °F 48.2 °F 77% 29.89 in 6.2 mi NW 5.8 mph - N/A   Mostly Cloudy
2:25 PM 55.4 °F 50.0 °F 82% 29.89 in 6.2 mi NW 4.6 mph - N/A   Scattered Clouds
2:30 PM 57.2 °F 50.0 °F 77% 29.89 in 6.2 mi WNW 4.6 mph - N/A   Mostly Cloudy
2:45 PM 57.2 °F 48.2 °F 72% 29.89 in 6.2 mi West 3.5 mph - N/A   Mostly Cloudy
2:55 PM 55.4 °F 48.2 °F 77% 29.92 in 6.2 mi West 9.2 mph - N/A   Overcast
3:02 PM 55.4 °F 48.2 °F 77% 29.92 in 6.2 mi West 6.9 mph - N/A   Mostly Cloudy
3:06 PM 55.4 °F 48.2 °F 77% 29.92 in 6.2 mi West 6.9 mph - N/A   Overcast
3:10 PM 55.4 °F 50.0 °F 82% 29.92 in 6.2 mi West 6.9 mph - N/A   Overcast
3:11 PM 55.4 °F 48.2 °F 77% 29.92 in 6.2 mi West 6.9 mph - N/A   Mostly Cloudy
3:25 PM 57.2 °F 50.0 °F 77% 29.92 in 6.2 mi WNW 4.6 mph - N/A   Overcast
3:55 PM 57.2 °F 48.2 °F 72% 29.92 in 6.2 mi WNW 4.6 mph - N/A   Partly Cloudy
4:15 PM 55.4 °F 48.2 °F 77% 29.92 in 6.2 mi West 8.1 mph - N/A   Overcast
4:19 PM 55.4 °F 48.2 °F 77% 29.92 in 6.2 mi West 6.9 mph - N/A   Overcast
4:25 PM 55.4 °F 50.0 °F 82% 29.92 in 6.2 mi WNW 5.8 mph - N/A   Overcast
4:32 PM 55.4 °F 50.0 °F 82% 29.92 in 6.2 mi NW 3.5 mph - N/A   Overcast
4:55 PM 55.4 °F 48.2 °F 77% 29.92 in 6.2 mi NNW 3.5 mph - N/A   Scattered Clouds
5:25 PM 57.2 °F 46.4 °F 67% 29.92 in 6.2 mi NW 4.6 mph - N/A   Partly Cloudy
5:55 PM 57.2 °F 46.4 °F 67% 29.92 in 6.2 mi NNW 2.3 mph - N/A   Unknown
6:25 PM 55.4 °F 46.4 °F 72% 29.95 in 6.2 mi WNW 2.3 mph - N/A   Unknown
6:55 PM 51.8 °F 50.0 °F 94% 29.95 in 3.7 mi NW 1.2 mph - N/A   Mist
6:56 PM 51.8 °F 50.0 °F 94% 29.95 in - NW 1.2 mph - N/A   Partly Cloudy
7:01 PM 51.8 °F 50.0 °F 94% 29.95 in 3.1 mi NW 1.2 mph - N/A   Partly Cloudy
7:04 PM 50.0 °F 48.2 °F 94% 29.95 in 1.8 mi NW 1.2 mph - N/A   Partly Cloudy
7:09 PM 50.0 °F 48.2 °F 94% 29.95 in - Calm Calm - N/A   Partly Cloudy
7:14 PM 50.0 °F 48.2 °F 94% 29.95 in 5.0 mi Calm Calm - N/A   Partly Cloudy
7:20 PM 50.0 °F 48.2 °F 94% 29.95 in - NE 1.2 mph - N/A   Scattered Clouds
7:25 PM 50.0 °F 48.2 °F 94% 29.95 in 5.6 mi Calm Calm - N/A   Partly Cloudy
7:36 PM 48.2 °F 46.4 °F 93% 29.95 in 6.2 mi Calm Calm - N/A   Unknown
7:55 PM 46.4 °F 46.4 °F 100% 29.95 in 6.2 mi Calm Calm - N/A   Partly Cloudy
8:08 PM 44.6 °F 44.6 °F 100% 29.95 in 6.2 mi NE 1.2 mph - N/A   Partly Cloudy
8:11 PM 44.6 °F 44.6 °F 100% 29.95 in 3.7 mi NE 1.2 mph - N/A   Partly Cloudy
8:16 PM 44.6 °F 44.6 °F 100% 29.95 in 0.7 mi Calm Calm - N/A   Mist
8:18 PM 44.6 °F 44.6 °F 100% 29.98 in - Calm Calm - N/A Fog Fog
8:25 PM 44.6 °F 44.6 °F 100% 29.98 in 0.6 mi Calm Calm - N/A Fog Fog
8:26 PM 44.6 °F 44.6 °F 100% 29.98 in - Calm Calm - N/A Fog Fog
8:32 PM 44.6 °F 44.6 °F 100% 29.98 in 0.9 mi Calm Calm - N/A   Mist
8:36 PM 44.6 °F 44.6 °F 100% 29.98 in 1.4 mi Calm Calm - N/A   Mist
8:40 PM 44.6 °F 44.6 °F 100% 29.98 in 5.0 mi Calm Calm - N/A   Mist
8:43 PM 44.6 °F 44.6 °F 100% 29.98 in 1.1 mi ENE 1.2 mph - N/A   Mist
8:55 PM 44.6 °F 44.6 °F 100% 29.98 in 3.7 mi ENE 1.2 mph - N/A   Mist
8:56 PM 44.6 °F 44.6 °F 100% 29.98 in 6.2 mi ENE 1.2 mph - N/A   Unknown
9:02 PM 44.6 °F 44.6 °F 100% 29.98 in 3.1 mi ENE 1.2 mph - N/A   Mist
9:10 PM 42.8 °F 42.8 °F 100% 29.98 in - ENE 1.2 mph - N/A   Mist
9:13 PM 42.8 °F 42.8 °F 100% 29.98 in 6.2 mi Calm Calm - N/A   Unknown
9:25 PM 42.8 °F 42.8 °F 100% 29.98 in 6.2 mi Calm Calm - N/A   Unknown
9:28 PM 42.8 °F 42.8 °F 100% 29.98 in 3.7 mi Calm Calm - N/A   Mist
9:30 PM 42.8 °F 42.8 °F 100% 29.98 in 0.6 mi Calm Calm - N/A Fog Fog
9:55 PM 42.8 °F 42.8 °F 100% 29.98 in - ENE 1.2 mph - N/A Fog Fog
9:57 PM 42.8 °F 42.8 °F 100% 29.98 in 4.3 mi East 1.2 mph - N/A   Mist
10:00 PM 42.8 °F 42.8 °F 100% 29.98 in 6.2 mi East 1.2 mph - N/A   Unknown
10:13 PM 42.8 °F 42.8 °F 100% 29.98 in 3.7 mi Calm Calm - N/A   Mist
10:19 PM 42.8 °F 42.8 °F 100% 29.98 in 6.2 mi Calm Calm - N/A   Unknown
10:25 PM 41.0 °F 41.0 °F 100% 29.98 in 4.3 mi Calm Calm - N/A   Mist
10:29 PM 41.0 °F 41.0 °F 100% 29.98 in 6.2 mi Calm Calm - N/A   Unknown
10:42 PM 41.0 °F 41.0 °F 100% 29.98 in 6.2 mi Calm Calm - N/A   Unknown
10:47 PM 41.0 °F 41.0 °F 100% 29.98 in - Calm Calm - N/A   Mist
10:51 PM 41.0 °F 41.0 °F 100% 29.98 in 6.2 mi Calm Calm - N/A   Unknown
10:55 PM 41.0 °F 41.0 °F 100% 29.98 in 6.2 mi Calm Calm - N/A   Unknown
10:59 PM 41.0 °F 41.0 °F 100% 29.98 in - Calm Calm - N/A   Mist
11:03 PM 41.0 °F 41.0 °F 100% 29.98 in 1.8 mi Calm Calm - N/A   Mist
11:07 PM 41.0 °F 41.0 °F 100% 29.98 in 3.1 mi Calm Calm - N/A   Mist
11:12 PM 41.0 °F 41.0 °F 100% 29.98 in 5.6 mi Calm Calm - N/A   Mist
11:13 PM 41.0 °F 41.0 °F 100% 29.98 in - Calm Calm - N/A   Mist
11:20 PM 39.2 °F 39.2 °F 100% 29.98 in 1.6 mi Calm Calm - N/A   Mist
11:25 PM 41.0 °F 41.0 °F 100% 29.98 in 3.1 mi Calm Calm - N/A   Mist
11:29 PM 39.2 °F 39.2 °F 100% 29.98 in 1.1 mi Calm Calm - N/A   Mist
11:36 PM 39.2 °F 39.2 °F 100% 29.98 in - Calm Calm - N/A   Mist
11:41 PM 39.2 °F 39.2 °F 100% 29.98 in 6.2 mi Calm Calm - N/A   Unknown
11:44 PM 39.2 °F 39.2 °F 100% 29.98 in 0.9 mi Calm Calm - N/A   Mist
11:49 PM 41.0 °F 41.0 °F 100% 29.98 in 6.2 mi Calm Calm - N/A   Unknown
11:55 PM 39.2 °F 39.2 °F 100% 29.98 in - East 1.2 mph - N/A   Mist
11:59 PM 39.2 °F 39.2 °F 100% 29.98 in 1.2 mi ENE 1.2 mph - N/A   Mist